Tracking 20621 objects as of 29-Mar-2020
HD Live streaming from Space Station
objects crossing your sky now

SL-12 DEB

Track SL-12 DEB now!
10-day predictions


NORAD ID: 44871
Int'l Code: 2010-041AL
Perigee: 631.4 km
Apogee: 19,091.7 km
Inclination: 65.3 °
Period: 343.0 minutes
Semi major axis: 16232 km
RCS: Unknown
Launch date: September 2, 2010
Source: Commonwealth of Independent States (former USSR) (CIS)
Launch site: TYURATAM MISSILE AND SPACE COMPLEX (TTMTR)

Note: This is SATELLITE DEBRIS
aabbcc
Your satellite tracking list
Your tracking list is empty




NASA's NSSDC Master Catalog

Two Line Element Set (TLE):
1 44871U 10041AL  20088.42348240 -.00000342  00000-0 -21228-2 0  9993
2 44871  65.3064 216.8389 5686211  27.6482 353.5286  4.19781867  8332
Source of the keplerian elements: AFSPC